Location: Brno
(49.2000°N, 16.6330°E)
Time: 23:31:44
(UTC+02:00)

ISS - Visible Passes

Search period start: 18 October 2019 00:00
Search period end: 27 October 2019 23:00
Orbit: 411 x 421 km, 51.6° (Epoch: 19 October)

Date Brightness Start Highest point End Pass type
(mag) Time Alt. Az. Time Alt. Az. Time Alt. Az.
24 Oct -1.2 06:50:12 10° SSW 06:52:51 22° SE 06:55:30 10° E visible
25 Oct -0.8 06:02:33 10° S 06:04:27 14° SE 06:06:22 10° ESE visible
26 Oct -2.7 06:48:55 10° SW 06:52:08 44° SSE 06:55:22 10° ENE visible
27 Oct -2.0 05:00:52 11° SSW 05:03:38 30° SE 05:06:37 10° E visible
